This is the latest recevied weather packets stored in our database for station/object NR6G-5. If no packets are shown the sender has not sent any weather packets the latest 10 day(s).
| Time | Temp. | Humidity | Pressure | Rain* | Wind** | Luminosity | Snow |
|---|---|---|---|---|---|---|---|
| 1777870037 | 17.22° C | 52% | 1012 hPa | 0 mm | - | - | - |
| 1777869736 | 17.22° C | 52% | 1012 hPa | 0 mm | - | - | - |
| 1777868839 | 17.22° C | 51% | 1011.7 hPa | 0 mm | - | - | - |
| 1777868236 | 17.22° C | 50% | 1011.4 hPa | 0 mm | - | - | - |
| 1777867036 | 17.78° C | 49% | 1011.4 hPa | 0 mm | - | - | - |
| 1777866136 | 18.33° C | 48% | 1010.7 hPa | 0 mm | - | - | - |
| 1777865258 | 18.89° C | 48% | 1010.4 hPa | 0 mm | - | - | - |
| 1777863528 | 19.44° C | 46% | 1009.6 hPa | 0 mm | - | - | - |
| 1777863227 | 19.44° C | 45% | 1009.6 hPa | 0 mm | - | - | - |
| 1777862927 | 20° C | 46% | 1009.5 hPa | 0 mm | - | - | - |
| 1777861428 | 21.11° C | 44% | 1008.7 hPa | 0 mm | - | - | - |
| 1777860827 | 21.67° C | 44% | 1008.5 hPa | 0 mm | - | - | - |
| 1777860527 | 22.22° C | 43% | 1008.3 hPa | 0 mm | - | - | - |
| 1777860228 | 22.22° C | 43% | 1007.9 hPa | 0 mm | - | - | - |
| 1777859927 | 22.78° C | 43% | 1007.9 hPa | 0 mm | - | - | - |
| 1777859027 | 23.33° C | 43% | 1007.9 hPa | 0 mm | - | - | - |
| 1777858727 | 23.33° C | 42% | 1008 hPa | 0 mm | - | - | - |
| 1777858428 | 23.89° C | 42% | 1007.9 hPa | 0 mm | - | - | - |
| 1777858128 | 23.89° C | 41% | 1007.9 hPa | 0 mm | - | - | - |
| 1777857828 | 23.89° C | 41% | 1008 hPa | 0 mm | - | - | - |
| 1777857269 | 24.44° C | 40% | 1007.9 hPa | 0 mm | - | - | - |
| 1777856966 | 24.44° C | 40% | 1007.9 hPa | 0 mm | - | - | - |
| 1777856667 | 25° C | 39% | 1007.8 hPa | 0 mm | - | - | - |
| 1777856367 | 25° C | 39% | 1007.8 hPa | 0 mm | - | - | - |
| 1777856067 | 25° C | 39% | 1007.8 hPa | 0 mm | - | - | - |
* Rain latest hour (hover to see other rain measurements)
** Current wind speed in m/s (hover to see current wind gust speed)